Probability
0 0 0 0 0 0 0 0 0 0 0 1 2 3 4 7 9 11 11 11 12 14 14 13 8 5 6 7 5 2 2 3 3 4 6 7 8 9 8 6 6 7 6 5
0 0 0 0 0 0 0 0 0 0 0 0 1 2 5 7 8 9 9 9 11 14 15 14 10 7 6 6 4 2 3 3 3 4 5 6 7 7 7 7 8 8 7 6
0 0 0 0 0 0 0 0 0 0 0 0 1 3 4 6 7 8 6 6 9 13 13 12 10 8 6 4 3 3 3 3 3 3 4 5 6 6 7 7 8 9 9 8
0 0 0 0 0 0 0 0 0 0 0 0 1 2 3 4 6 7 7 7 8 9 10 9 8 6 4 3 3 3 3 3 3 3 3 4 5 6 6 7 7 8 9 10
0 0 0 0 0 0 0 0 0 0 0 0 1 2 2 2 4 6 7 8 8 7 6 5 4 4 3 3 3 3 2 3 3 3 3 3 4 5 6 6 6 7 8 9
0 0 0 0 0 0 0 0 0 0 0 0 1 1 1 1 2 3 5 5 6 4 3 3 2 2 2 2 2 1 1 1 2 3 3 3 3 4 6 6 6 6 7 7
0 0 0 0 0 0 0 0 0 0 0 0 1 1 0 0 1 2 2 3 2 2 2 2 1 1 1 1 1 0 0 0 1 2 3 3 3 4 6 6 6 6 6 6
0 0 0 0 0 0 0 0 0 0 0 0 0 0 0 0 0 1 1 2 2 1 1 1 0 0 0 0 0 0 0 0 0 1 2 3 3 4 5 6 6 6 6 6
0 0 0 0 0 0 0 0 0 0 0 0 0 0 0 0 0 0 1 2 3 2 1 0 0 0 0 0 0 0 0 0 0 0 1 1 2 3 3 4 5 6 6 6
0 0 0 0 0 0 0 0 0 0 0 0 0 0 0 0 0 0 1 3 4 4 2 1 0 0 0 0 0 0 0 0 0 0 0 0 1 1 1 2 3 3 3 3
0 0 0 0 0 0 0 0 0 0 0 0 0 0 0 0 0 0 1 4 6 5 3 2 1 0 0 0 0 0 0 0 0 0 0 0 0 0 0 1 1 1 1 1
0 0 0 0 0 0 0 0 0 0 0 0 0 0 0 0 0 0 1 4 6 6 4 3 1 0 0 0 0 0 0 0 0 0 0 0 0 0 0 0 0 0 0 0
0 0 0 0 0 0 0 0 0 0 0 0 0 0 0 0 0 0 1 4 6 6 5 4 2 1 0 0 0 0 0 0 0 0 0 0 0 0 0 0 0 0 0 0
0 0 0 0 0 0 0 0 0 0 0 0 0 0 0 0 0 0 1 3 6 6 5 4 2 1 0 0 0 0 0 0 0 0 0 0 0 0 0 1 1 1 1 0
0 0 0 0 0 0 0 0 0 0 0 0 0 0 0 0 0 0 1 4 6 6 4 3 2 0 0 0 0 0 0 0 0 0 0 0 0 0 0 1 2 2 2 1
0 0 0 0 0 0 0 0 0 0 0 0 0 0 0 0 0 1 2 5 6 5 3 2 1 0 0 0 0 0 0 0 0 0 0 0 0 0 1 2 3 3 3 3
0 0 0 0 0 0 0 0 0 0 0 0 0 0 0 0 0 1 3 4 6 5 3 1 1 0 0 0 0 0 0 0 0 0 0 0 0 0 1 2 3 3 3 3
0 0 0 0 0 0 0 0 0 0 0 0 0 1 1 1 1 2 3 4 4 4 2 1 0 0 0 0 0 0 0 0 0 0 0 0 0 0 1 2 3 3 3 2
0 0 0 0 0 0 0 0 0 0 0 0 0 1 2 2 3 3 3 2 2 1 1 1 0 0 0 0 0 0 0 0 0 0 0 0 0 0 0 1 3 3 3 2
0 0 0 0 0 0 0 0 0 0 0 0 0 0 1 3 3 3 2 1 1 1 0 0 0 0 0 0 0 0 0 0 0 0 0 0 0 0 0 1 2 3 3 3
0 0 0 0 0 0 0 0 0 0 0 0 0 0 1 2 2 2 1 1 1 1 0 0 0 0 0 0 0 0 0 0 0 0 0 0 0 0 0 0 1 3 3 3
0 0 0 0 0 0 0 0 0 0 0 0 0 0 0 1 1 1 0 0 1 1 0 0 0 0 0 0 0 0 0 0 0 0 0 0 0 0 0 0 1 2 3 3
0 0 0 0 0 0 0 0 0 0 0 0 0 0 0 0 0 0 0 0 0 0 0 0 0 0 0 0 0 0 0 0 0 0 0 0 0 0 0 0 1 2 3 3
0 0 0 0 0 0 0 0 0 0 0 0 0 0 0 0 0 0 0 0 0 0 0 0 0 0 0 0 0 0 0 0 0 0 0 0 0 0 0 0 0 1 2 2
0 0 0 0 0 0 0 0 0 0 0 0 0 0 0 0 0 0 0 0 0 0 0 0 0 0 0 0 0 0 0 0 0 0 0 0 0 0 0 0 0 0 1 1
0 0 0 0 0 0 0 0 0 0 0 0 0 0 0 0 0 0 0 0 0 0 0 0 0 0 0 0 0 0 0 0 0 0 0 0 0 0 0 0 0 0 0 0
0 0 0 0 0 0 0 0 0 0 0 0 0 0 0 0 0 0 0 0 0 0 0 0 0 0 0 0 0 0 0 0 0 0 0 0 0 0 0 0 0 0 0 0
Wind_Speed
3 3 2 2 2 2 3 5 6 6 5 7 6 4 3 2 2 2 2 2 2 3 2 2 2 2 2 2 2 3 3 2 3 2 2 1 1 0 0 1 1 1 1 1
1 2 1 1 2 2 2 2 3 3 5 5 3 1 1 2 3 3 3 3 2 3 3 3 3 2 2 2 2 2 2 2 1 1 1 1 1 1 0 1 1 1 1 2
1 3 2 2 3 2 2 2 3 4 5 2 2 3 4 4 4 4 4 3 3 3 3 2 3 3 2 2 2 2 2 1 1 1 1 1 1 0 1 1 1 1 2 1
2 2 3 6 2 2 2 2 2 3 3 3 4 3 2 2 5 5 4 4 3 3 2 2 2 2 2 1 2 2 2 2 2 2 2 1 1 1 1 1 1 2 2 2
3 2 4 4 2 2 2 3 2 2 3 2 1 2 2 1 3 4 4 3 3 2 2 2 2 2 2 1 1 1 2 2 2 2 2 1 1 1 1 1 1 2 2 2
4 3 5 6 4 2 2 3 2 1 2 1 2 0 4 2 1 2 2 2 2 2 2 2 1 2 3 2 1 1 1 1 1 2 2 2 2 1 1 1 1 1 1 1
3 3 6 5 4 1 2 6 3 1 2 3 4 4 3 1 1 2 2 2 3 3 2 2 2 3 3 1 1 1 0 0 0 1 1 1 1 1 1 0 0 0 1 1
3 2 7 3 2 3 6 3 2 2 2 3 2 1 0 1 2 2 2 3 3 3 2 1 2 3 2 1 1 0 1 1 1 1 0 1 1 0 0 1 0 0 1 1
7 7 5 2 3 4 3 2 3 2 2 2 2 1 1 1 2 2 3 3 3 3 2 1 2 3 3 2 1 1 2 1 1 1 1 1 1 0 0 0 1 1 1 1
3 5 4 4 3 3 2 3 3 3 2 2 2 2 2 2 2 2 2 3 3 3 3 1 1 2 2 1 1 2 1 1 1 1 1 1 0 0 0 1 1 1 1 1
3 5 4 4 3 3 3 2 1 2 2 3 3 3 3 3 3 3 3 2 3 4 4 3 2 1 1 2 2 2 1 1 0 0 0 0 0 1 1 2 3 3 2 2
5 5 3 5 4 3 2 3 2 1 2 1 3 3 2 2 2 2 3 2 3 3 3 3 2 2 1 2 3 3 1 1 1 0 0 0 0 1 1 1 2 3 3 3
5 3 3 4 4 2 2 2 2 2 2 2 1 2 2 2 2 2 2 3 4 4 4 3 3 2 2 2 2 2 2 2 1 1 1 1 1 1 2 2 2 2 3 3
3 1 2 2 3 3 2 2 1 1 0 1 1 1 2 1 1 1 3 3 3 3 2 2 2 2 2 2 3 2 2 2 1 1 1 1 1 1 1 1 2 3 3 3
2 2 3 3 2 2 2 1 1 1 1 0 1 1 2 2 2 2 2 2 2 2 2 2 2 2 1 2 2 2 2 1 1 1 1 1 1 1 1 1 1 2 2 2
2 1 1 1 2 2 2 1 1 1 1 1 1 1 2 2 2 1 1 2 3 3 3 3 3 3 2 2 2 2 2 2 1 1 1 1 1 1 1 1 1 1 1 2
0 2 2 2 3 3 3 3 3 3 2 2 2 2 2 2 1 1 2 2 2 3 3 3 3 2 2 3 2 2 1 1 1 1 1 1 1 1 1 1 2 2 2 2
4 5 4 4 4 4 4 3 3 3 3 3 2 2 2 3 3 3 2 1 1 1 2 2 2 2 2 3 3 2 1 1 1 1 1 1 1 1 1 2 2 3 2 2
2 2 2 2 2 2 3 3 3 3 2 2 1 2 3 3 3 2 2 2 2 2 3 2 2 2 3 3 2 2 2 2 1 1 1 1 1 1 2 2 2 3 2 1
1 1 1 2 2 1 2 2 2 2 1 1 1 1 1 2 2 2 2 3 3 3 3 2 2 2 2 2 2 2 2 2 2 2 1 2 2 2 2 2 3 3 2 2
1 1 1 1 2 2 2 2 1 2 1 1 2 2 3 3 3 2 2 2 3 3 3 3 2 2 2 2 3 2 2 2 2 2 2 2 2 2 2 2 2 2 3 3
1 1 2 2 2 3 3 2 1 2 1 1 2 2 2 2 2 2 3 3 3 2 2 2 2 3 3 2 2 3 3 3 3 2 3 3 3 3 3 3 2 3 3 3
2 2 2 2 2 3 3 2 2 1 2 2 3 3 3 3 2 3 3 2 2 2 2 2 2 3 3 2 2 3 3 3 3 3 3 3 3 3 3 3 3 3 3 3
2 2 2 2 1 0 2 3 2 2 2 2 2 2 2 2 2 2 2 2 3 3 2 2 3 3 2 2 2 2 3 3 3 3 3 3 3 3 3 3 3 3 3 3
1 1 1 1 1 2 3 2 2 2 2 2 2 2 2 2 3 2 2 2 3 3 2 3 4 4 3 2 3 3 3 3 4 3 3 3 3 3 3 3 3 3 3 3
1 2 2 3 3 3 2 2 2 2 2 2 2 2 2 1 2 2 2 2 2 3 2 2 2 3 3 3 3 3 3 3 3 4 4 4 4 3 3 3 4 3 3 3
1 1 1 2 2 2 2 2 2 3 2 2 2 2 2 2 2 2 2 2 2 2 2 2 2 2 3 3 3 3 3 3 3 3 3 3 3 3 4 4 3 3 3 3
Wind_Direction
228 247 207 214 235 186 181 189 193 230 233 259 256 242 239 216 161 133 139 147 163 173 168 162 162 175 165 169 167 162 164 186 212 211 191 172 163 170 202 226 251 254 259 266
347 336 288 273 293 238 216 202 214 234 260 264 259 235 218 191 162 168 178 172 168 172 165 172 185 190 184 182 169 159 169 200 203 171 153 171 188 186 207 262 273 256 262 261
244 307 23 279 253 217 208 217 195 221 246 275 284 242 225 206 186 187 187 181 182 185 181 185 196 189 193 200 169 162 176 193 195 191 200 216 213 183 247 271 270 259 266 262
133 67 226 245 267 208 198 244 239 246 261 243 240 248 253 200 184 188 187 176 178 182 181 180 174 164 162 152 163 179 188 194 197 206 225 240 211 219 250 252 251 262 276 276
120 173 272 293 274 197 189 274 263 248 274 293 354 34 346 259 188 188 191 181 175 174 162 151 147 142 124 132 164 186 207 211 203 197 203 214 238 252 246 246 266 261 260 266
126 160 232 248 276 274 119 287 296 253 234 213 97 103 272 262 173 163 157 152 139 124 117 134 154 138 130 158 172 215 235 234 205 189 193 213 229 234 244 228 250 261 278 282
154 206 258 259 291 43 154 250 278 259 230 192 196 221 251 209 167 166 155 146 135 137 153 180 167 142 136 141 236 257 280 90 117 156 186 202 207 220 231 221 258 319 316 322
148 189 255 271 103 172 227 259 259 250 233 212 231 293 274 173 172 160 150 144 146 149 170 180 149 142 140 189 256 342 91 91 75 37 59 111 128 251 241 176 156 296 305 313
188 213 245 257 226 245 224 237 250 241 248 199 200 219 215 216 204 184 170 164 159 156 156 163 157 153 162 217 193 101 82 69 66 53 42 70 134 126 12 215 196 237 245 265
244 267 276 281 280 279 256 242 248 240 219 187 215 219 211 196 193 194 189 175 157 148 157 183 186 170 184 190 151 112 94 64 64 58 38 38 50 175 191 218 226 227 233 249
261 284 311 303 294 293 302 298 278 269 236 202 191 217 215 207 207 210 204 184 164 168 178 190 181 171 174 165 144 131 132 145 152 135 127 35 341 255 229 234 221 209 220 217
232 239 226 267 293 313 311 297 274 262 290 253 203 208 204 207 210 199 198 181 177 178 178 180 166 177 184 155 155 151 150 174 197 213 225 201 345 336 317 259 260 238 232 223
232 244 228 265 292 296 286 285 282 237 215 219 224 188 174 195 213 199 186 175 186 193 190 181 172 182 192 173 165 169 185 205 215 226 232 238 222 248 309 333 343 303 272 264
246 250 296 302 291 294 295 300 346 349 337 181 162 144 142 144 155 185 205 202 186 170 169 172 183 215 215 188 179 183 186 196 197 219 233 233 228 236 250 280 313 321 319 296
267 219 236 277 301 312 313 357 31 2 7 95 127 153 172 180 197 216 218 180 152 156 172 172 192 248 242 190 190 196 194 206 210 224 233 230 236 245 269 284 291 308 332 341
285 308 294 300 304 315 319 304 288 273 251 204 190 212 209 200 202 213 187 155 157 191 207 194 205 227 213 183 186 201 217 229 215 207 225 222 218 233 254 267 279 288 296 305
245 295 284 276 268 263 264 263 252 237 219 210 222 213 176 156 168 218 221 194 188 206 212 211 224 222 191 188 186 201 212 233 237 203 215 223 222 228 240 250 261 270 276 277
216 231 230 227 239 253 264 264 255 243 229 223 211 181 180 186 202 220 223 194 148 240 246 233 231 222 208 201 192 192 188 199 211 220 225 228 231 229 234 253 265 271 285 292
227 225 236 255 260 255 258 256 252 246 246 230 192 198 211 218 219 215 184 162 176 230 255 243 234 225 226 217 187 178 182 198 211 225 223 233 236 241 242 252 262 268 268 275
202 216 238 286 297 277 267 261 248 244 246 217 198 203 231 240 226 214 193 199 216 223 228 224 212 216 221 211 182 183 191 203 216 222 219 226 240 248 246 249 257 262 259 252
245 273 282 282 292 287 272 258 237 247 254 214 206 217 233 240 220 203 202 240 252 223 213 211 208 210 206 195 190 196 202 209 217 224 225 233 242 250 254 256 256 256 253 251
265 269 277 280 281 288 291 276 246 244 249 240 233 229 230 230 222 218 225 228 233 219 207 211 212 209 203 195 193 199 208 214 217 222 225 228 233 240 249 253 253 251 246 246
272 262 258 256 255 268 288 283 255 237 238 241 236 226 221 225 212 202 237 241 222 218 209 218 221 217 210 200 202 203 208 213 217 223 227 227 227 230 239 249 250 247 243 243
296 287 277 276 284 297 291 288 283 269 255 252 244 235 219 213 242 236 226 229 228 226 223 228 236 237 219 210 212 213 213 218 222 223 225 228 231 234 239 244 247 248 245 242
289 296 299 299 269 249 253 274 296 294 289 274 266 257 240 214 217 235 230 224 222 223 233 232 231 229 218 217 223 225 224 224 222 216 217 223 231 235 240 245 246 247 245 241
272 268 261 251 244 244 245 236 243 257 257 274 286 277 265 242 221 227 231 233 231 233 234 230 225 220 221 224 228 232 233 232 229 225 223 223 228 233 238 242 245 243 243 242
299 294 289 295 283 257 245 235 238 248 239 231 255 267 260 251 235 227 227 237 242 245 244 239 230 228 228 227 229 231 230 228 227 226 226 225 226 230 235 237 237 236 236 237